This is the latest recevied weather packets stored in our database for station/object K8DJB-1. If no packets are shown the sender has not sent any weather packets the latest 10 day(s).
| Time | Temp. | Humidity | Pressure | Rain* | Wind** | Luminosity | Snow |
|---|---|---|---|---|---|---|---|
| 1778093648 | 11.67° C | 39% | 1012.7 hPa | 0 mm | - | - | - |
| 1778093319 | 12.22° C | 41% | 1012.5 hPa | 0 mm | - | - | - |
| 1778093019 | 12.22° C | 40% | 1012.6 hPa | 0 mm | - | - | - |
| 1778092719 | 12.22° C | 39% | 1012.5 hPa | 0 mm | - | - | - |
| 1778092419 | 11.67° C | 43% | 1012.6 hPa | 0 mm | - | - | - |
| 1778091791 | 12.22° C | 38% | 1012.5 hPa | 0 mm | - | - | - |
| 1778091442 | 11.67° C | 38% | 1012.5 hPa | 0 mm | - | - | - |
| 1778091142 | 11.67° C | 39% | 1012.4 hPa | 0 mm | - | - | - |
| 1778090843 | 11.67° C | 38% | 1012.6 hPa | 0 mm | - | - | - |
| 1778090542 | 11.67° C | 37% | 1012.5 hPa | 0 mm | - | - | - |
| 1778090243 | 11.67° C | 39% | 1012.2 hPa | 0 mm | - | - | - |
| 1778089910 | 11.67° C | 37% | 1012.2 hPa | 0 mm | - | - | - |
| 1778089537 | 11.67° C | 39% | 1012.4 hPa | 0 mm | - | - | - |
| 1778089237 | 12.22° C | 37% | 1012.2 hPa | 0 mm | - | - | - |
| 1778088937 | 12.22° C | 39% | 1012.3 hPa | 0 mm | - | - | - |
| 1778088637 | 11.67° C | 37% | 1012.4 hPa | 0 mm | - | - | - |
| 1778088037 | 11.67° C | 38% | 1012.3 hPa | 0 mm | - | - | - |
| 1778087737 | 11.67° C | 38% | 1012.5 hPa | 0 mm | - | - | - |
| 1778087437 | 11.67° C | 38% | 1012.5 hPa | 0 mm | - | - | - |
| 1778087137 | 11.67° C | 42% | 1012.5 hPa | 0 mm | - | - | - |
| 1778086837 | 11.11° C | 39% | 1012.5 hPa | 0 mm | - | - | - |
| 1778086537 | 11.11° C | 39% | 1012.6 hPa | 0 mm | - | - | - |
| 1778086237 | 11.11° C | 40% | 1012.6 hPa | 0 mm | - | - | - |
| 1778085937 | 11.11° C | 42% | 1012.7 hPa | 0 mm | - | - | - |
| 1778085637 | 11.11° C | 43% | 1012.7 hPa | 0 mm | - | - | - |
* Rain latest hour (hover to see other rain measurements)
** Current wind speed in m/s (hover to see current wind gust speed)